Regional Weather Roundup
Issued by NWS Upton, NY

Current Version | Previous Version | Text Only | Print | Product List | Glossary Off
Versions: 1 2 3 4 5 6 7 8 9 10 11 12 13 14 15 16 17 18 19 20 21 22 23 24 25 26 27 28 29 30 31 32 33 34 35 36 37 38 39 40 41 42 43 44 45 46 47 48 49 50
000 ASUS41 KOKX 042205 RWROKX REGIONAL WEATHER ROUNDUP NATIONAL WEATHER SERVICE NEW YORK NY 600 PM EDT TUE AUG 04 2015 NOTE: "FAIR" INDICATES FEW OR NO CLOUDS BELOW 12,000 FEET WITH NO SIGNIFICANT WEATHER AND/OR OBSTRUCTIONS TO VISIBILITY. NYZ071-072-176-178-NJZ106-104-042300- NEW YORK CITY METRO AREA CITY SKY/WX TMP DP RH WIND PRES REMARKS CENTRAL PARK MOSUNNY 87 55 33 W8G17 29.87S LAGUARDIA APRT MOSUNNY 89 55 31 W15G23 29.83S KENNEDY INTL MOSUNNY 89 59 36 SW20 29.85R NEWARK/LIBERTY MOSUNNY 90 50 25 SW15G26 29.85R BRNX BOT. GARD N/A 88 54 31 SW22 29.86R TETERBORO MOSUNNY 89 52 28 SW17G25 29.83S $$ NYZ177-179-078>081-042300- LONG ISLAND NEW YORK CITY SKY/WX TMP DP RH WIND PRES REMARKS FARMINGDALE MOSUNNY 88 62 41 SW9G18 29.84S ISLIP MOSUNNY 86 66 51 SW14G21 29.82S SHIRLEY SUNNY 83 73 72 S8 29.84S WESTHAMPTON SUNNY 83 72 69 SW13G20 29.85S MONTAUK POINT N/A 80 74 81 SW10 29.85R $$ NYZ052-065-067-042300- HUDSON VALLEY CITY SKY/WX TMP DP RH WIND PRES REMARKS WHITE PLAINS MOSUNNY 86 54 33 W12 29.85R NEWBURGH MOSUNNY 86 55 35 W18 29.86R MONTGOMERY SUNNY 84 57 39 W10 29.85R POUGHKEEPSIE SUNNY 88 54 31 W13 29.82S ALBANY PTSUNNY 77 58 51 W9 29.85R $$ NJZ001-105-106-008-010-013-015-019>022-104-042300- NEW JERSEY CITY SKY/WX TMP DP RH WIND PRES REMARKS NEWARK/LIBERTY MOSUNNY 90 50 25 SW15G26 29.85R TETERBORO MOSUNNY 89 52 28 SW17G25 29.83S CALDWELL SUNNY 87 54 32 W9G18 29.86R MORRISTOWN MOSUNNY 88 54 31 W14G22 29.86S SOMERVILLE SUNNY 88 54 31 VRB7 29.85S SUSSEX MOSUNNY 83 57 41 SW9 29.87R ANDOVER N/A 81 62 52 SW7 29.89R TRENTON SUNNY 89 54 30 W12 29.87R MILLVILLE SUNNY 90 63 40 W9 29.88F HX 91 ATLANTIC CITY SUNNY 90 64 42 W9 29.88S HX 91 WRIGHTSTOWN SUNNY 89 57 34 W15G24 29.84S TOMS RIVER N/A 90 61 37 W15G21 29.87R BELMAR MOSUNNY 90 59 35 W10 29.86F $$ PAZ047>061-062-071-042300- EASTERN PENNSYLVANIA CITY SKY/WX TMP DP RH WIND PRES REMARKS PHILADELPHIA MOSUNNY 90 56 31 W18 29.88S ALLENTOWN SUNNY 84 54 35 W16 29.89S SCRANTON PTSUNNY 80 58 46 NW10 29.90R $$ CTZ002-004>006-009-010-012-RIZ004-006-007-MAZ004-011-015-042300- SOUTHERN NEW ENGLAND IN CT CITY SKY/WX TMP DP RH WIND PRES REMARKS BRADLEY INTL PTSUNNY 82 64 54 N6 29.81R HARTFORD PTSUNNY 82 64 54 NE7 29.80R DANBURY SUNNY 84 59 42 SW14G20 29.85S WTRBRY/OXFORD MOSUNNY 84 61 45 W10G20 29.87S BRIDGEPORT SUNNY 85 64 49 SW13 29.82R MERIDEN SUNNY 89 56 32 W9 29.81R NEW HAVEN MOSUNNY 84 59 42 SW12G26 29.82R CHESTER FAIR 84 59 42 SW10 29.84S GROTON MOSUNNY 78 69 73 S15 29.81S WILLIMANTIC PTSUNNY 82 62 50 NE9 29.82R IN RI CITY SKY/WX TMP DP RH WIND PRES REMARKS PROVIDENCE SUNNY 86 67 52 SW10 29.82R BLOCK ISLAND N/A 79 73 83 SW15G22 29.85F WESTERLY SUNNY 81 70 69 SW13G22 29.84R IN MA CITY SKY/WX TMP DP RH WIND PRES REMARKS BOSTON PTSUNNY 73 65 75 CALM 29.82R WORCESTER CLOUDY 72 66 81 W3 29.87R WESTFIELD MOSUNNY 80 66 62 N6 29.82R PROVINCETOWN MOSUNNY 75 63 64 NW8 29.84R NANTUCKET MOSUNNY 76 72 87 S14 29.86R $$ ANZ330-335-338-340-345-350-353-355-042300- COASTAL MARINE OBSERVATIONS STATION/POSITION TIME SKY/WX TEMP WIND PRES VSBY WAVE AIR SEA DIR/SP/G HT/PER (UTC) (F) (DEG/KT/KT) (MB) (MI) (FT/S) NY HARB ENTRANCE 2050 79 78 200/ 6/ 8 1010.3 4/ 8 4S FIRE IS NOT AVBL 20S FIRE ISLAND 2050 77 75 200/ 10/ 12 1010.5 6/ 8 GREAT SOUTH BAY 2115 78 82 240/ 14/ 17 N/A 23SW MTP 2150 77 74 230/ 14/ 16 1010.3 6/ 8 HUDSON CANYON NOT AVBL KINGS POINT 2100 85 71 290/ 15/ 18 1009.7 EXECUTION ROCKS 2100 82 230/ 8/ 12 N/A CENTRAL LI SOUND NOT AVBL EASTERN LI SOUND 2100 75 69 220/ 8/ 10 N/A ROBBINS REEF 2100 87 240/ 16/ 20 1009.4 $$ >>>>>>>>>>>>>>>>>>>>>>>>>>>> KEY <<<<<<<<<<<<<<<<<<<<<<<<<<< > < > SKY/WX - SKY CONDITION/PRESENT WEATHER < > TMP - TEMPERATURE IN FAHRENHEIT < > DP - DEWPOINT IN FAHRENHEIT < > RH - RELATIVE HUMIDITY IN PERCENT < > WIND - DIRECTION AND SPEED IN MPH < > PRES - MEAN SEA LEVEL PRESSURE IN INCHES OF HG < > WCI - WIND CHILL INDEX < > VSB - VISIBILITY IN MILES < > HX - HEAT INDEX < > TC - TEMPERATURE IN CELSIUS < > VRB - VARIABLE WIND DIRECTION < > < >>>>>>>>>>>>>>>>>>>>>>>>>>>> KEY <<<<<<<<<<<<<<<<<<<<<<<<<<<

USA.gov is the U.S. government's official web portal to all federal, state and local government web resources and services.